[[{"header":{"parameterUnit":"m.s-1","parameterCategory":1,"la1":30.2991,"la2":30.254,"lo1":-89.0895,"lo2":-89.0444,"dy":0.0017,"dx":0.0017,"nx":28,"ny":28,"refTime":"2025-08-06T03:00:00:Z","depth":0,"parameterNumber":2,"parameterNumberName":"U-component_of_WINDS"},"data":[0,0,0,0,0,0,0,0,0,0,0,0,0,0,0,0,0,0,0,0,0,0,0,0,0,0,0,0,0,0,0,0,0,0,0,0,0,0,0,0,0,0,0,0,0,0,0,0,0,0,0,0,0,0,0,0,0,0,1.7127,1.7127,0,1.7165,1.7166,1.7166,1.7135,1.7134,1.7133,1.7131,1.7171,1.7173,1.7175,0,0,0,0,0,0,0,0,0,0,0,0,0,1.7025,1.7027,1.7126,1.7127,1.7127,1.7165,1.7166,1.7166,1.7136,1.7134,1.7132,1.7131,1.717,1.7173,1.7175,0,0,0,0,0,0,0,0,0,0,0,0,0,1.7067,1.7028,1.7126,1.7117,1.7116,1.7165,1.7166,1.7167,1.7136,1.7134,1.7132,1.713,1.7169,1.7172,1.7176,1.7236,0,0,1.7186,1.7188,0,0,0,0,0,0,0,0,1.7065,1.7071,1.7118,1.7117,1.7117,1.7143,1.7145,1.719,1.7136,1.7128,1.7131,1.7129,1.7163,1.7167,1.7179,1.7238,1.724,1.7187,1.7189,1.719,1.7191,0,0,0,0,0,0,0,1.7062,1.7069,1.7142,1.7118,1.7118,1.711,1.7114,1.7153,1.7156,1.7129,1.7127,1.7132,1.7163,1.7175,1.7179,1.7241,1.7186,1.7189,1.7192,1.7193,1.7352,1.7354,0,0,0,0,0,0,1.706,1.7067,1.7141,1.7143,1.7085,1.7114,1.7118,1.7137,1.7156,1.7157,1.7133,1.713,1.7171,1.7175,1.7181,1.7252,1.719,1.7193,1.7195,1.735,1.7352,1.7355,0,0,0,0,0,0,1.7058,1.7067,1.7139,1.7104,1.7113,1.7117,1.7139,1.7139,1.7151,1.7159,1.716,1.7146,1.7169,1.7176,1.7223,1.7253,1.7195,1.7198,1.7347,1.735,1.7353,1.7397,0,0,0,0,0,0,1.7055,1.7066,1.7089,1.7105,1.7115,1.7181,1.7141,1.7141,1.7157,1.7154,1.7171,1.7172,1.7168,1.7218,1.7226,1.7257,1.7201,1.7344,1.7349,1.7352,1.7393,1.7401,1.7408,0,0,0,0,0,1.7052,1.71,1.7091,1.71,1.7144,1.7183,1.7188,1.7183,1.716,1.7183,1.7188,1.7172,1.7249,1.7223,1.7232,1.7264,1.7342,1.7347,1.7352,1.7389,1.7399,1.7408,0,0,0,0,0,0,1.7087,1.7102,1.7092,1.7147,1.7164,1.7177,1.7206,1.7194,1.7218,1.7213,1.7205,1.721,1.7259,1.7266,1.7237,1.7324,1.7292,1.7299,1.7317,1.7327,1.7335,1.7331,1.7203,0,0,0,0,0,1.7102,1.7132,1.7143,1.719,1.72,1.7202,1.7218,1.7213,1.723,1.7237,1.7245,1.7263,1.7291,1.7309,1.7336,1.7394,1.7397,1.7421,1.7429,1.7435,1.7441,1.7472,1.7482,1.7371,1.7371,1.7371,0,0,1.7131,1.7143,1.7163,1.7198,1.721,1.7242,1.7208,1.7242,1.7265,1.7242,1.7287,1.7294,1.7313,1.7365,1.7389,1.7373,1.7472,1.7441,1.7446,1.7449,1.7478,1.7488,1.7498,1.7374,1.7373,1.7373,0,0,1.7201,1.7214,1.7254,1.7268,1.7287,1.7288,1.7298,1.7314,1.7318,1.7363,1.7346,1.7373,1.7422,1.7436,1.745,1.7526,1.7511,1.7535,1.7575,1.7606,1.7614,1.7622,1.7648,1.7658,1.7541,1.7541,1.7541,0,1.7235,1.7282,1.7276,1.7312,1.7328,1.7309,1.735,1.7363,1.7391,1.7402,1.7384,1.7445,1.7456,1.7512,1.753,1.7542,1.7553,1.7532,1.7614,1.7621,1.7628,1.7653,1.7663,1.7543,1.7543,1.7543,1.7543,0,1.7323,1.7356,1.7386,1.7413,1.7433,1.7471,1.7471,1.7491,1.7485,1.7488,1.7534,1.7547,1.7575,1.7589,1.7582,1.7643,1.7633,1.7615,1.7582,1.7642,1.7665,1.7675,1.7547,1.7546,1.7546,1.7545,0,0,1.7415,1.7439,1.745,1.7462,1.7483,1.7508,1.7546,1.7574,1.7591,1.7611,1.7642,1.7684,1.7667,1.7683,1.7678,1.7705,1.7763,1.7683,1.7683,1.7696,1.7831,1.7843,1.7854,1.7754,1.7756,1.7757,1.7829,0,1.7485,1.755,1.7547,1.7608,1.7638,1.7621,1.7653,1.7669,1.7674,1.77,1.7704,1.7734,1.771,1.7719,1.7745,1.7751,1.779,1.7746,1.7782,1.7783,1.7776,1.7867,1.788,1.7946,1.7838,1.7839,1.784,0,1.7575,1.7598,1.7662,1.7678,1.7691,1.772,1.7746,1.7771,1.7789,1.779,1.7808,1.7799,1.7837,1.7805,1.7856,1.7826,1.7841,1.7847,1.7849,1.7851,1.7814,1.787,1.7967,1.7977,1.7855,1.7854,1.7853,0,1.7634,1.7681,1.7726,1.7737,1.7757,1.7778,1.7788,1.7804,1.7821,1.7844,1.7855,1.7882,1.7896,1.7917,1.7915,1.7892,1.7968,1.7935,1.7969,1.7969,1.7984,1.7983,1.8084,1.7996,1.7996,1.7996,1.7996,0,1.7712,1.7751,1.7753,1.778,1.7824,1.782,1.7863,1.7871,1.7885,1.7913,1.7901,1.7927,1.7924,1.7951,1.7951,1.7993,1.8,1.8001,1.8,1.8002,1.8001,1.801,1.8005,1.7999,1.7998,1.7998,1.7997,0,1.7785,1.7787,1.7834,1.785,1.7855,1.7887,1.79,1.7926,1.7929,1.7965,1.7973,1.7979,1.801,1.8011,1.8047,1.8046,1.8097,1.8092,1.8091,1.809,1.8123,1.8119,1.8232,1.8246,1.8151,1.8151,1.8152,0,1.7833,1.7863,1.7883,1.7901,1.7911,1.7941,1.7958,1.7956,1.7975,1.7998,1.8021,1.8051,1.8074,1.8125,1.8132,1.8159,1.8153,1.8191,1.8157,1.8157,1.8152,1.815,1.8152,1.8197,1.8198,1.8199,1.82,0,1.7919,1.7919,1.7945,1.7971,1.7993,1.8014,1.8033,1.8049,1.8049,1.807,1.8102,1.812,1.8157,1.8187,1.8213,1.8223,1.8211,1.8211,1.822,1.822,1.8218,1.8218,1.8108,1.8208,1.8207,1.8206,1.8206,1.8205,1.798,1.8006,1.8023,1.8053,1.8067,1.8086,1.8111,1.8118,1.8144,1.8174,1.8171,1.8206,1.8224,1.8258,1.827,1.8297,1.8284,1.8297,1.83,1.8303,1.8306,1.8215,1.8302,1.8302,1.8302,1.8302,1.8301,0,1.8064,1.8074,1.8102,1.8129,1.8152,1.8141,1.8162,1.8182,1.8213,1.823,1.8254,1.829,1.8319,1.8329,1.8357,1.8377,1.8372,1.8384,1.8382,1.8384,1.8317,1.8306,1.8387,1.8387,1.8387,1.8387,1.8387,1.8387,1.811,1.8152,1.8155,1.8205,1.8215,1.825,1.8262,1.8279,1.8293,1.8335,1.8359,1.8365,1.838,1.8409,1.8435,1.8437,1.8447,1.8461,1.8461,1.8397,1.8389,1.838,1.837,1.8464,1.8464,1.8525,1.8526,1.8526]},{"header":{"parameterUnit":"m.s-1","parameterCategory":1,"la1":30.2991,"la2":30.254,"lo1":-89.0895,"lo2":-89.0444,"dy":0.0017,"dx":0.0017,"nx":28,"ny":28,"refTime":"2025-08-06T03:00:00:Z","depth":0,"parameterNumber":3,"parameterNumberName":"V-component_of_WINDS"},"data":[0,0,0,0,0,0,0,0,0,0,0,0,0,0,0,0,0,0,0,0,0,0,0,0,0,0,0,0,0,0,0,0,0,0,0,0,0,0,0,0,0,0,0,0,0,0,0,0,0,0,0,0,0,0,0,0,0,0,-3.0921,-3.0922,0,-3.1051,-3.1052,-3.1053,-3.1048,-3.1046,-3.1045,-3.1043,-3.1175,-3.118,-3.1185,0,0,0,0,0,0,0,0,0,0,0,0,0,-3.0668,-3.0673,-3.0921,-3.0922,-3.0924,-3.105,-3.1052,-3.1054,-3.1048,-3.1046,-3.1044,-3.1042,-3.1173,-3.1179,-3.1185,0,0,0,0,0,0,0,0,0,0,0,0,0,-3.0786,-3.0674,-3.092,-3.0937,-3.0939,-3.105,-3.1052,-3.1054,-3.1049,-3.1046,-3.1043,-3.1041,-3.1171,-3.1179,-3.1186,-3.1289,0,0,-3.121,-3.1214,0,0,0,0,0,0,0,0,-3.0779,-3.0795,-3.0933,-3.0936,-3.0939,-3.103,-3.1011,-3.1133,-3.105,-3.1007,-3.1043,-3.104,-3.1129,-3.114,-3.117,-3.1295,-3.1301,-3.1211,-3.1216,-3.1219,-3.1221,0,0,0,0,0,0,0,-3.0771,-3.0789,-3.0972,-3.0935,-3.0938,-3.0937,-3.0951,-3.1034,-3.1082,-3.1011,-3.1011,-3.1026,-3.113,-3.1163,-3.1173,-3.1303,-3.1211,-3.1218,-3.1222,-3.1225,-3.1519,-3.1522,0,0,0,0,0,0,-3.0759,-3.0783,-3.0968,-3.0976,-3.0851,-3.0944,-3.0959,-3.1004,-3.1081,-3.109,-3.1028,-3.1025,-3.1151,-3.1164,-3.1178,-3.1304,-3.1219,-3.1226,-3.1231,-3.1516,-3.152,-3.1523,0,0,0,0,0,0,-3.0754,-3.0776,-3.0963,-3.0879,-3.0903,-3.0951,-3.1001,-3.1008,-3.104,-3.1094,-3.1102,-3.1053,-3.1149,-3.1167,-3.1262,-3.1308,-3.123,-3.1237,-3.1513,-3.1517,-3.1522,-3.1556,0,0,0,0,0,0,-3.0747,-3.0774,-3.0814,-3.088,-3.0907,-3.1045,-3.1004,-3.1012,-3.1054,-3.1051,-3.112,-3.1128,-3.1148,-3.125,-3.1269,-3.1317,-3.1243,-3.1509,-3.1515,-3.152,-3.1551,-3.1561,-3.157,0,0,0,0,0,-3.0738,-3.0818,-3.0816,-3.0838,-3.0958,-3.1047,-3.1063,-3.1085,-3.1058,-3.1098,-3.1133,-3.1126,-3.13,-3.126,-3.1282,-3.1333,-3.1506,-3.1513,-3.152,-3.1546,-3.1559,-3.157,0,0,0,0,0,0,-3.0755,-3.0827,-3.0825,-3.0929,-3.0982,-3.1046,-3.1097,-3.1097,-3.1158,-3.1153,-3.1178,-3.1193,-3.1288,-3.132,-3.1274,-3.1437,-3.1399,-3.1411,-3.1412,-3.1425,-3.1434,-3.1424,-3.1249,0,0,0,0,0,-3.0771,-3.0837,-3.0896,-3.0982,-3.1009,-3.1049,-3.1088,-3.1101,-3.1156,-3.1179,-3.122,-3.1274,-3.1341,-3.1385,-3.1449,-3.1555,-3.157,-3.1601,-3.1611,-3.1619,-3.1628,-3.1687,-3.1702,-3.1547,-3.1546,-3.1546,0,0,-3.0804,-3.0852,-3.0892,-3.0987,-3.103,-3.1098,-3.1068,-3.1141,-3.1192,-3.119,-3.1282,-3.1314,-3.1376,-3.1477,-3.1524,-3.1507,-3.1674,-3.1627,-3.1633,-3.1639,-3.1696,-3.171,-3.1723,-3.1551,-3.155,-3.155,0,0,-3.09,-3.0943,-3.1019,-3.1062,-3.1127,-3.1153,-3.1172,-3.1236,-3.1258,-3.1351,-3.1351,-3.1412,-3.1526,-3.1571,-3.1608,-3.1722,-3.1718,-3.1742,-3.1792,-3.1849,-3.1861,-3.1872,-3.1913,-3.1927,-3.1752,-3.1752,-3.1752,0,-3.0933,-3.1036,-3.1058,-3.1133,-3.1174,-3.1176,-3.1254,-3.1295,-3.1378,-3.1406,-3.1386,-3.1531,-3.1572,-3.1684,-3.1712,-3.1742,-3.1764,-3.1734,-3.1858,-3.1869,-3.188,-3.1918,-3.1934,-3.1754,-3.1754,-3.1754,-3.1754,0,-3.1074,-3.1145,-3.1199,-3.128,-3.1328,-3.1403,-3.1437,-3.1483,-3.1491,-3.1519,-3.1614,-3.1665,-3.174,-3.1767,-3.1776,-3.188,-3.1868,-3.1853,-3.1816,-3.1896,-3.1933,-3.1948,-3.1758,-3.1757,-3.1756,-3.1756,0,0,-3.1183,-3.1275,-3.1295,-3.1331,-3.1404,-3.1459,-3.1535,-3.1609,-3.1648,-3.1705,-3.1769,-3.1867,-3.1853,-3.1896,-3.191,-3.196,-3.2047,-3.1939,-3.194,-3.1957,-3.2165,-3.2176,-3.2193,-3.2045,-3.2048,-3.205,-3.216,0,-3.1286,-3.1421,-3.1443,-3.1561,-3.1628,-3.1631,-3.1697,-3.1749,-3.1777,-3.1838,-3.1869,-3.1938,-3.1915,-3.1941,-3.1991,-3.2026,-3.2089,-3.2018,-3.2105,-3.2107,-3.2089,-3.2212,-3.2224,-3.2325,-3.2174,-3.2177,-3.2179,0,-3.1424,-3.1485,-3.161,-3.1674,-3.1703,-3.1762,-3.1831,-3.1889,-3.1948,-3.1965,-3.2013,-3.2021,-3.21,-3.206,-3.2169,-3.2121,-3.2158,-3.218,-3.2185,-3.2193,-3.2148,-3.2224,-3.2357,-3.2372,-3.2202,-3.22,-3.2198,0,-3.1491,-3.1605,-3.1694,-3.1726,-3.1802,-3.1844,-3.1878,-3.1933,-3.1977,-3.2038,-3.2066,-3.2135,-3.2173,-3.2226,-3.2253,-3.2221,-3.236,-3.2322,-3.2377,-3.2376,-3.2405,-3.2403,-3.2546,-3.243,-3.2429,-3.2429,-3.2429,0,-3.1604,-3.168,-3.1725,-3.178,-3.1866,-3.1891,-3.1975,-3.2008,-3.2058,-3.212,-3.2127,-3.2184,-3.2216,-3.2278,-3.23,-3.2387,-3.2404,-3.242,-3.2424,-3.2419,-3.2417,-3.2443,-3.2437,-3.2433,-3.2432,-3.2431,-3.2431,0,-3.1692,-3.1726,-3.1824,-3.1889,-3.1907,-3.1967,-3.2023,-3.2076,-3.2105,-3.2183,-3.2202,-3.2247,-3.2321,-3.2353,-3.2444,-3.2458,-3.2558,-3.2557,-3.2538,-3.2539,-3.2592,-3.2586,-3.2757,-3.278,-3.2648,-3.2649,-3.265,0,-3.1762,-3.1821,-3.1892,-3.1934,-3.1969,-3.2036,-3.2081,-3.2108,-3.2154,-3.2226,-3.2271,-3.2345,-3.2405,-3.2523,-3.2563,-3.2633,-3.2634,-3.2689,-3.2644,-3.2637,-3.2635,-3.2631,-3.2637,-3.2697,-3.2698,-3.2699,-3.27,0,-3.1881,-3.1895,-3.1959,-3.2029,-3.2082,-3.2138,-3.2193,-3.2227,-3.2263,-3.2314,-3.239,-3.2437,-3.253,-3.2603,-3.2675,-3.271,-3.2711,-3.2714,-3.273,-3.2725,-3.2711,-3.2719,-3.256,-3.271,-3.2709,-3.2708,-3.2708,-3.2707,-3.1963,-3.2015,-3.2074,-3.2145,-3.2189,-3.224,-3.2294,-3.233,-3.2394,-3.2472,-3.2484,-3.2565,-3.2623,-3.272,-3.2757,-3.2821,-3.2807,-3.2831,-3.2837,-3.2842,-3.2845,-3.2702,-3.2834,-3.2834,-3.2834,-3.2833,-3.2833,0,-3.2082,-3.212,-3.2185,-3.2262,-3.2318,-3.2315,-3.2376,-3.2423,-3.2494,-3.2548,-3.2608,-3.2695,-3.2766,-3.2813,-3.2885,-3.2927,-3.293,-3.2945,-3.2942,-3.295,-3.2853,-3.2832,-3.2942,-3.2942,-3.2942,-3.2942,-3.2942,-3.2942,-3.2151,-3.224,-3.2261,-3.2372,-3.241,-3.2489,-3.2524,-3.2572,-3.2615,-3.2712,-3.2772,-3.2802,-3.2853,-3.2929,-3.2995,-3.3006,-3.3033,-3.3049,-3.306,-3.2968,-3.2957,-3.2946,-3.2926,-3.3054,-3.3055,-3.3152,-3.3153,-3.3153]}]]